Simultaneous Nadir Overpasses (SNOs) Predictions

Prediction of SNOs between AQUA and NOAA-19 Satellite Orbit:

Table of predicted SNOs for the next 14.0 days since TLE Epoch: 2/6/2015
Index Date (AQUA) Time (AQUA) Lat,Lon (AQUA) SZA (AQUA ) Date (NOAA-19) Time (NOAA-19) Lat,Lon (NOAA-19) SZA (NOAA-19 ) Distance(km) Time Diff (sec)
1 02/08/2015 16:54:03 79.46,-100.10 95.72 02/08/2015 16:53:49 79.47,-100.22 95.74 2.67 14
2 02/08/2015 17:43:23 -79.22, 69.11 84.64 02/08/2015 17:44:37 -79.23, 69.09 84.67 0.48 74
3 02/10/2015 21:38:23 79.53,-171.67 95.12 02/10/2015 21:37:22 79.53,-171.60 95.13 1.41 61
4 02/10/2015 22:27:45 -79.37, -2.94 85.13 02/10/2015 22:28:13 -79.38, -3.05 85.12 2.39 28
5 02/13/2015 03:12:05 -79.47, -74.64 85.72 02/13/2015 03:11:47 -79.47, -74.70 85.70 1.30 18
6 02/15/2015 07:56:24 -79.54,-146.25 86.35 02/15/2015 07:55:20 -79.53,-146.11 86.34 2.95 64
7 02/15/2015 08:45:46 79.36, 22.65 93.38 02/15/2015 08:46:21 79.35, 22.74 93.35 2.16 35
8 02/17/2015 13:30:05 79.46, -49.11 92.77 02/17/2015 13:29:55 79.46, -49.04 92.76 1.53 10
9 02/19/2015 18:14:24 79.59,-121.04 92.17 02/19/2015 18:13:30 79.60,-121.17 92.22 2.93 54




NCC Satellite Simultaneous Nadir Overpasses (SNOs) Prediction Service
